WN8IZV Weather Reports


time (UTC)temp
C
wind
direction
speed
KPH
gust
KPH
rain 1hr
cm
rain 24hr
cm
rain mn
cm
humidity
%
barometer
mb
20260508220053 17 179 4.8 12.9 0.00 0.08 0.08 69 1007.1
20260508214548 16 178 1.6 4.8 0.00 0.08 0.08 69 1007.2
20260508213040 16 49 1.6 8.0 0.00 0.08 0.08 69 1007.3
20260508211537 15 198 1.6 6.4 0.00 0.08 0.08 69 1007.6
20260508210039 15 179 1.6 6.4 0.00 0.08 0.08 68 1007.8
20260508204531 16 55 1.6 6.4 0.00 0.08 0.08 68 1007.9
20260508203026 16 67 3.2 11.3 0.00 0.08 0.08 69 1008.3
20260508201523 16 128 4.8 9.7 0.00 0.08 0.08 68 1008.6
20260508200021 16 84 1.6 12.9 0.00 0.08 0.08 68 1008.9
20260508194516 16 188 3.2 11.3 0.00 0.08 0.08 68 1009.2
20260508193011 16 200 1.6 14.5 0.00 0.08 0.08 69 1009.4
20260508191508 16 162 1.6 8.0 0.00 0.08 0.08 69 1009.4
20260508190105 16 58 3.2 12.9 0.00 0.08 0.08 69 1009.6
20260508184502 16 134 1.6 9.7 0.00 0.08 0.08 69 1009.8
20260508183158 16 153 3.2 14.5 0.00 0.08 0.08 69 1009.8
20260508181606 15 67 1.6 9.7 0.00 0.08 0.08 69 1010.2
20260508180052 16 58 1.6 8.0 0.00 0.08 0.08 69 1010.3
20260508174547 16 208 3.2 9.7 0.00 0.08 0.08 70 1010.5
20260508173046 15 94 1.6 12.9 0.00 0.08 0.08 70 1010.9
20260508171538 15 189 3.2 6.4 0.00 0.08 0.08 70 1011.2
20260508170039 15 75 1.6 6.4 0.00 0.08 0.08 70 1011.2
20260508164532 15 160 1.6 9.7 0.00 0.08 0.08 70 1011.4
20260508163029 14 111 3.2 8.0 0.00 0.08 0.08 70 1011.6
20260508161525 14 65 3.2 11.3 0.00 0.08 0.08 71 1011.7
20260508160023 14 159 1.6 6.4 0.00 0.08 0.08 71 1011.8
20260508154522 14 204 3.2 6.4 0.00 0.08 0.08 71 1011.9
20260508153016 13 141 0.0 8.0 0.00 0.08 0.08 71 1012.0
20260508151514 13 346 0.0 4.8 0.00 0.08 0.08 71 1012.0
20260508150013 13 62 0.0 6.4 0.00 0.08 0.08 72 1012.1
20260508144510 12 169 1.6 6.4 0.00 0.08 0.08 72 1012.4
20260508143001 11 59 1.6 6.4 0.00 0.08 0.08 72 1012.3
20260508141608 11 13 0.0 3.2 0.00 0.08 0.08 72 1012.5
20260508140056 11 141 0.0 3.2 0.00 0.08 0.08 72 1012.6
20260508134557 10 183 1.6 6.4 0.00 0.08 0.08 73 1012.7
20260508133110 10 122 1.6 4.8 0.00 0.08 0.08 73 1012.7
20260508131547 9 172 0.0 4.8 0.00 0.08 0.08 73 1012.7
20260508130141 9 77 1.6 6.4 0.00 0.08 0.08 73 1012.7
20260508124539 8 193 0.0 4.8 0.00 0.08 0.08 73 1012.5
20260508123045 8 146 0.0 3.2 0.00 0.08 0.08 73 1012.5
20260508121537 7 8 0.0 1.6 0.00 0.08 0.08 73 1012.5
20260508120032 6 356 0.0 1.6 0.00 0.08 0.08 73 1012.3
20260508114530 5 352 0.0 0.0 0.00 0.08 0.08 72 1012.2
20260508113028 4 352 0.0 0.0 0.00 0.08 0.08 71 1012.1
20260508111527 3 353 0.0 0.0 0.00 0.08 0.08 71 1011.9
20260508110043 3 353 0.0 0.0 0.00 0.08 0.08 70 1011.9
20260508104522 2 353 0.0 0.0 0.00 0.08 0.08 70 1011.9
20260508103020 2 353 0.0 0.0 0.00 0.08 0.08 70 1011.8
20260508101517 3 353 0.0 0.0 0.00 0.08 0.08 70 1011.9
20260508100018 3 353 0.0 0.0 0.00 0.08 0.08 70 1011.9
20260508094511 3 353 0.0 0.0 0.00 0.08 0.08 70 1012.0
20260508093008 3 353 0.0 0.0 0.00 0.08 0.08 70 1012.1
20260508091503 4 353 0.0 0.0 0.00 0.08 0.08 69 1012.0
20260508090113 5 353 0.0 0.0 0.00 0.08 0.08 69 1011.9
20260508084556 5 353 0.0 0.0 0.00 0.08 0.08 69 1012.1
20260508083054 5 353 0.0 0.0 0.00 0.08 0.08 69 1011.8
20260508081601 5 353 0.0 0.0 0.00 0.08 0.08 69 1011.9
20260508080050 5 353 0.0 0.0 0.00 0.08 0.08 69 1012.2
20260508074547 6 353 0.0 0.0 0.00 0.08 0.08 69 1012.1
20260508073048 6 353 0.0 3.2 0.00 0.08 0.08 68 1012.1
20260508071554 6 22 0.0 0.0 0.00 0.08 0.08 68 1012.1
20260508070043 6 21 1.6 6.4 0.00 0.08 0.08 68 1011.9
20260508064540 6 3 0.0 3.2 0.00 0.08 0.08 67 1012.1
20260508063036 5 207 0.0 0.0 0.00 0.08 0.08 66 1012.1
20260508061536 5 207 0.0 0.0 0.00 0.08 0.08 66 1012.1
20260508060034 5 207 0.0 0.0 0.00 0.08 0.08 65 1012.2
20260508054527 6 207 0.0 0.0 0.05 0.08 0.08 65 1012.1
20260508053041 6 207 0.0 0.0 0.08 0.08 0.08 64 1012.1
20260508051518 7 207 0.0 0.0 0.08 0.08 0.08 64 1012.5
20260508050015 7 207 0.0 1.6 0.08 0.08 0.08 64 1012.4
20260508044508 9 274 3.2 16.1 0.03 0.03 0.03 64 1012.7
20260508043004 10 268 0.0 1.6 0.00 0.00 0.00 64 1012.2
20260508041502 10 162 0.0 8.0 0.00 0.00 0.00 64 1012.1
20260508040111 10 214 0.0 3.2 0.00 0.00 0.00 64 1012.0
20260508034600 10 194 0.0 1.6 0.00 0.00 0.00 64 1012.1
20260508033053 10 219 0.0 1.6 0.00 0.00 0.00 64 1012.3
20260508031551 10 217 0.0 1.6 0.00 0.00 0.00 64 1012.5
20260508030049 10 262 0.0 0.0 0.00 0.00 0.00 64 1012.3
20260508024556 10 262 0.0 1.6 0.00 0.00 0.00 64 1012.3
20260508023045 10 274 0.0 3.2 0.00 0.00 0.00 64 1012.3
20260508021544 10 274 0.0 3.2 0.00 0.00 0.00 63 1012.2
20260508020047 10 255 0.0 4.8 0.00 0.00 0.00 63 1012.2
20260508014542 10 268 0.0 4.8 0.00 0.00 0.00 63 1012.2
20260508013040 10 278 0.0 3.2 0.00 0.00 0.00 63 1012.1
20260508011546 11 280 3.2 9.7 0.00 0.00 0.00 63 1012.0
20260508010035 11 346 0.0 4.8 0.00 0.00 0.00 63 1011.6
20260508004534 11 335 0.0 9.7 0.00 0.00 0.00 63 1011.4
20260508003131 11 283 0.0 6.4 0.00 0.00 0.00 63 1011.4
20260508001528 11 259 1.6 8.0 0.00 0.00 0.00 63 1011.3
20260508000030 11 285 1.6 8.0 0.00 0.00 0.00 64 1011.4
20260507234525 12 282 3.2 9.7 0.00 0.00 0.00 64 1011.2
20260507233037 13 287 3.2 9.7 0.00 0.00 0.00 64 1011.3
20260507231519 12 266 3.2 9.7 0.00 0.00 0.00 64 1011.3
20260507230016 12 327 3.2 12.9 0.00 0.00 0.00 64 1011.3
20260507224515 12 256 3.2 12.9 0.00 0.00 0.00 64 1011.4
20260507223012 12 297 4.8 11.3 0.00 0.00 0.00 64 1011.6
20260507221510 12 239 3.2 16.1 0.00 0.00 0.00 64 1011.6